Location: Newark
(46.9000°N, 28.3500°E)
Time: 12:24:17
(UTC+00:00)

Explorer 7 - Pass Details

Date: 03 September 2019
Orbit: 485 x 680 km, 50.3° (Epoch: 22 October)

Event Time Altitude Azimuth Distance (km) Brightness Sun altitude
Rises 02:08:18 0° 196° (SSW) 2,994 - -13.6°
Exits shadow 02:09:44 - 190° (S) 2,523 9.8 -13.4°
Reaches altitude 10° 02:11:10 10° 180° (S) 2,100 9.5 -13.2°
Maximum altitude 02:14:37 20° 134° (SE) 1,571 9.4 -12.7°
Drops below altitude 10° 02:18:06 10° 89° (E) 2,117 10.9 -12.1°
Sets 02:21:01 0° 73° (ENE) 3,026 12.6 -11.7°
